DW2959 Murcia ES current weather conditions

sailwx.info

Wind from 155 at 6 knots

Air temperature 33.9° C
Dewpoint 22.0° C

Last reported at 2014-Jul-28 13:42 UTC.
Time now 2014-Jul-28 14:29 UTC

Location: N 38°00' W 001°02'.
View on Google Maps.

See reports from other nearby stations

  
Tides and Currents Weather Stations Pressure Air Temp Water Temp Dewpoint Dewpoint Depression Visibility Wind Speed Wind Dir Waves Ship Positions
date/time (UTC)wind fromknots sea level pressurealtimeterstation pressurevisibilityair tempwater tempwave heightnotes
2014-Jul-28 13:42 155 6 33.9
2014-Jul-28 13:12 126 4 33.9
2014-Jul-28 12:58 141 6 34.4
2014-Jul-28 12:41 168 3 34.4
2014-Jul-28 12:26 113 5 34.4
2014-Jul-28 12:11 172 3 34.4
2014-Jul-28 11:58 113 3 33.9
2014-Jul-28 11:42 146 3 33.3
2014-Jul-28 11:25 085 1 33.3
2014-Jul-28 11:11 088 1 32.2
2014-Jul-28 10:56 045 2 31.7
2014-Jul-28 10:41 046 0 30.6
2014-Jul-28 10:26 041 0 30.0
2014-Jul-28 10:11 040 0 29.4
2014-Jul-28 09:55 040 0 28.9
2014-Jul-28 09:10 318 0 27.2
2014-Jul-28 08:55 360 27.2
2014-Jul-28 08:41 360 0 26.1
2014-Jul-28 08:26 355 2 26.1
2014-Jul-28 08:09 331 0 25.6
2014-Jul-28 07:54 331 0 25.0
2014-Jul-28 07:39 331 0 25.0
2014-Jul-28 07:25 331 24.4
2014-Jul-28 07:10 331 23.9
2014-Jul-28 06:55 331 0 23.9
2014-Jul-28 06:39 071 23.3
2014-Jul-28 06:24 071 22.2
2014-Jul-28 06:09 071 21.7
2014-Jul-28 05:55 071 21.7
2014-Jul-28 05:38
2014-Jul-28 05:25
2014-Jul-28 05:09
2014-Jul-28 04:54
2014-Jul-28 04:38
2014-Jul-28 04:24
2014-Jul-28 04:09
2014-Jul-28 03:53
2014-Jul-28 03:39
2014-Jul-28 03:23 071 22.2
2014-Jul-28 03:07 071 22.2
2014-Jul-28 02:53 071 22.2
2014-Jul-28 02:38 071 22.8
2014-Jul-28 02:23 071 22.8
2014-Jul-28 02:07 071 22.8
2014-Jul-28 01:52 071 22.8
2014-Jul-28 01:38 071 22.8
2014-Jul-28 01:23 071 23.3
2014-Jul-28 01:07 071 23.3
2014-Jul-28 00:52 071 23.3
2014-Jul-28 00:37 071 23.9
2014-Jul-28 00:23 071 23.9
2014-Jul-28 00:07 071 23.9
2014-Jul-27 23:53 071 0 23.9
2014-Jul-27 23:36 071 23.9
2014-Jul-27 23:22 071 23.9
2014-Jul-27 23:07 071 0 24.4
2014-Jul-27 22:52 070 24.4
2014-Jul-27 22:36 068 0 24.4
2014-Jul-27 22:21 068 0 25.0
2014-Jul-27 22:07 067 1 25.0
2014-Jul-27 21:51 067 1 25.0
2014-Jul-27 21:36 077 2 25.6
2014-Jul-27 21:21 055 1 25.6
2014-Jul-27 21:05 067 3 26.1
2014-Jul-27 20:51 096 3 26.1
2014-Jul-27 20:36 093 2 26.7
2014-Jul-27 20:20 094 2 26.7
2014-Jul-27 20:06 095 4 26.7
2014-Jul-27 19:51 083 3 27.2
2014-Jul-27 19:35 092 4 27.8
2014-Jul-27 19:20 112 4 28.3
2014-Jul-27 19:06 121 3 28.9
2014-Jul-27 18:51 144 3 29.4
2014-Jul-27 18:35 120 3 30.0
2014-Jul-27 18:20 109 4 30.6
2014-Jul-27 18:05 106 3 31.1
2014-Jul-27 17:50 103 4 31.1
2014-Jul-27 17:35 121 3 31.7
2014-Jul-27 17:20 105 2 31.7
2014-Jul-27 17:05 160 3 32.2
2014-Jul-27 16:50 101 5 32.2
2014-Jul-27 16:34 109 4 32.8
2014-Jul-27 16:20 133 3 32.8
2014-Jul-27 16:05 134 4 33.3
2014-Jul-27 15:49 173 5 33.3
2014-Jul-27 15:34 107 6 32.8
2014-Jul-27 15:19 133 6 32.8
2014-Jul-27 15:05 159 6 32.8
2014-Jul-27 14:49 135 5 33.3
2014-Jul-27 14:34 167 5 32.8
2014-Jul-27 14:19 153 6 32.8
2014-Jul-27 14:04 169 6 33.3
2014-Jul-27 13:49 148 5 33.3
2014-Jul-27 13:33 084 6 32.8
2014-Jul-27 13:18 107 6 33.3
2014-Jul-27 13:04 105 4 33.9
2014-Jul-27 12:49 060 2 33.9
2014-Jul-27 12:34 053 3 33.3
2014-Jul-27 12:18 065 1 33.3
2014-Jul-27 12:03 080 2 32.8
2014-Jul-27 11:48 065 3 32.2
2014-Jul-27 11:34 070 2 31.7
2014-Jul-27 11:19 072 0 31.7
2014-Jul-27 11:02 018 4 30.6
2014-Jul-27 10:48 022 4 30.0
2014-Jul-27 10:33 005 5 29.4
2014-Jul-27 10:18 015 4 29.4
2014-Jul-27 10:03 043 3 28.9
2014-Jul-27 09:48 065 4 28.3
2014-Jul-27 09:32 053 0 28.3
2014-Jul-27 09:17 045 1 27.8
2014-Jul-27 09:02 072 1 27.2
2014-Jul-27 08:47 034 1 27.2
2014-Jul-27 08:32 038 0 26.7
2014-Jul-27 08:18 030 1 26.1
2014-Jul-27 08:01 036 1 25.6
2014-Jul-27 07:46 076 0 25.6
2014-Jul-27 07:31 077 0 25.6
2014-Jul-27 07:17 076 0 25.0
2014-Jul-27 07:02 076 23.9
2014-Jul-27 06:47 074 23.3
2014-Jul-27 06:31 074 22.2
2014-Jul-27 06:16 074 21.7
2014-Jul-27 06:01 074 21.1
2014-Jul-27 05:47
2014-Jul-27 05:31
2014-Jul-27 05:17
2014-Jul-27 05:01
2014-Jul-27 04:46
2014-Jul-27 04:31
2014-Jul-27 04:15
2014-Jul-27 04:00
2014-Jul-27 03:45
2014-Jul-27 03:30 071 21.1
2014-Jul-27 03:15 071 21.7
2014-Jul-27 03:00 071 21.7
2014-Jul-27 02:45 071 21.7
2014-Jul-27 02:29 071 22.2
2014-Jul-27 02:14 071 22.2
2014-Jul-27 02:00 071 22.8
2014-Jul-27 01:45 071 22.8
2014-Jul-27 01:29 071 22.8
2014-Jul-27 01:14 071 22.8
2014-Jul-27 01:00 071 23.3
2014-Jul-27 00:43 071 22.8
2014-Jul-27 00:29 071 23.3
2014-Jul-27 00:14 071 23.3
2014-Jul-26 23:59 071 23.3
2014-Jul-26 23:43 071 0 23.9
2014-Jul-26 23:28 070 0 23.9
2014-Jul-26 23:14 065 2 23.9
2014-Jul-26 22:59 080 1 24.4
2014-Jul-26 22:43 079 1 24.4
2014-Jul-26 22:28 076 0 24.4
2014-Jul-26 22:13 075 1 24.4
2014-Jul-26 21:57 082 1 25.0
2014-Jul-26 21:43 100 3 25.0
2014-Jul-26 21:28 090 1 25.6
2014-Jul-26 21:14 080 0 25.6
2014-Jul-26 20:57 080 0 26.1
2014-Jul-26 20:43 079 26.1
2014-Jul-26 20:28 080 26.1
2014-Jul-26 20:13 080 0 26.7
2014-Jul-26 19:57 072 2 26.7
2014-Jul-26 19:42 086 2 27.2
2014-Jul-26 19:28 078 1 27.8
2014-Jul-26 19:13 075 2 28.3
2014-Jul-26 18:57 077 1 29.4
2014-Jul-26 18:42 074 2 29.4
2014-Jul-26 18:27 093 2 30.0
2014-Jul-26 18:11 112 3 30.0
2014-Jul-26 17:57 097 3 30.0
2014-Jul-26 17:42 109 1 30.6
2014-Jul-26 17:26 105 3 30.6
2014-Jul-26 17:11 108 4 31.1
2014-Jul-26 16:57 091 5 30.6
2014-Jul-26 16:42 086 6 30.6
2014-Jul-26 16:26 093 5 31.1
2014-Jul-26 16:11 103 4 31.7
2014-Jul-26 15:56 095 5 31.7
2014-Jul-26 15:42 080 4 31.7
2014-Jul-26 15:26 094 5 31.7
2014-Jul-26 15:11 101 4 32.2
2014-Jul-26 14:57 104 5 31.7
2014-Jul-26 14:41 094 4 32.2
2014-Jul-26 14:26 073 5 31.7
2014-Jul-26 14:11 082 5 31.7